Location: Waco, TX
(31.5481°N, 97.1672°W)
Time: 01:44:32
(UTC-05:00)

ISS - Pass Details

Date: 11 February 2018
Orbit: 402 x 406 km, 51.6° (Epoch: 21 June)

Event Time Altitude Azimuth Distance (km) Brightness Sun altitude
Rises 20:05:03 0° 310° (NW) 2,314 0.7 -24.5°
Reaches altitude 10° 20:07:09 10° 305° (NW) 1,453 -0.3 -25.0°
Enters shadow 20:08:55 28° 291° (WNW) 794 -1.8 -25.3°
